Time,TemperatureF,DewpointF,PressureIn,WindDirection,WindDirectionDegrees,WindSpeedMPH,WindSpeedGustMPH,Humidity,HourlyPrecipIn,Conditions,Clouds,dailyrainin,SoftwareType,DateUTC
2016-02-11 00:14:00,15.9,13.0,29.80,WNW,288,3.0,8.0,89,0.00,,,0.00,weatherlink.com 1.10,2016-02-11 05:14:00,
2016-02-11 00:29:00,15.4,13.0,29.80,WNW,295,2.0,9.0,89,0.00,,,0.00,weatherlink.com 1.10,2016-02-11 05:29:00,
2016-02-11 00:59:00,14.6,12.0,29.81,West,276,2.0,10.0,89,0.00,,,0.00,weatherlink.com 1.10,2016-02-11 05:59:00,
2016-02-11 01:14:00,14.3,12.0,29.81,West,271,7.0,14.0,89,0.00,,,0.00,weatherlink.com 1.10,2016-02-11 06:14:00,
2016-02-11 01:29:00,13.6,11.0,29.81,WNW,295,8.0,11.0,88,0.00,,,0.00,weatherlink.com 1.10,2016-02-11 06:29:00,
2016-02-11 01:44:00,13.0,10.0,29.81,WSW,253,6.0,9.0,88,0.00,,,0.00,weatherlink.com 1.10,2016-02-11 06:44:00,
2016-02-11 01:59:00,12.4,9.0,29.81,West,274,5.0,9.0,87,0.00,,,0.00,weatherlink.com 1.10,2016-02-11 06:59:00,
2016-02-11 02:14:00,12.1,9.0,29.81,WNW,285,4.0,10.0,86,0.00,,,0.00,weatherlink.com 1.10,2016-02-11 07:14:00,
2016-02-11 02:29:00,11.9,8.0,29.81,WSW,254,6.0,8.0,85,0.00,,,0.00,weatherlink.com 1.10,2016-02-11 07:29:00,
2016-02-11 02:45:00,11.6,8.0,29.81,WNW,283,5.0,8.0,85,0.00,,,0.00,weatherlink.com 1.10,2016-02-11 07:45:00,
2016-02-11 03:00:00,11.5,8.0,29.82,WNW,292,2.0,8.0,85,0.00,,,0.00,weatherlink.com 1.10,2016-02-11 08:00:00,
2016-02-11 03:15:00,11.3,8.0,29.82,WNW,291,1.0,6.0,85,0.00,,,0.00,weatherlink.com 1.10,2016-02-11 08:15:00,
2016-02-11 03:30:00,12.4,12.0,29.82,WNW,295,4.0,9.0,100,0.00,,,0.00,weatherlink.com 1.10,2016-02-11 08:30:00,
2016-02-11 03:45:00,-999.9,-99.9,29.82,North,-9999,-999.9,-999.0,-999,0.00,,,0.00,weatherlink.com 1.10,2016-02-11 08:45:00,
2016-02-11 04:00:00,-999.9,-99.9,29.81,North,-9999,-999.9,-999.0,-999,0.00,,,0.00,weatherlink.com 1.10,2016-02-11 09:00:00,
2016-02-11 04:15:00,-999.9,-99.9,29.82,North,-9999,-999.9,-999.0,-999,0.00,,,0.00,weatherlink.com 1.10,2016-02-11 09:15:00,
2016-02-11 04:30:00,-999.9,-99.9,29.82,North,-9999,-999.9,-999.0,-999,0.00,,,0.00,weatherlink.com 1.10,2016-02-11 09:30:00,
2016-02-11 04:45:00,-999.9,-99.9,29.82,North,-9999,-999.9,-999.0,-999,0.00,,,0.00,weatherlink.com 1.10,2016-02-11 09:45:00,
2016-02-11 05:00:00,-999.9,-99.9,29.82,North,-9999,-999.9,-999.0,-999,0.00,,,0.00,weatherlink.com 1.10,2016-02-11 10:00:00,
2016-02-11 05:15:00,-999.9,-99.9,29.83,North,-9999,-999.9,-999.0,-999,0.00,,,0.00,weatherlink.com 1.10,2016-02-11 10:15:00,
2016-02-11 05:30:00,-999.9,-99.9,29.83,North,-9999,-999.9,-999.0,-999,0.00,,,0.00,weatherlink.com 1.10,2016-02-11 10:30:00,
2016-02-11 05:45:00,-999.9,-99.9,29.83,North,-9999,-999.9,-999.0,-999,0.00,,,0.00,weatherlink.com 1.10,2016-02-11 10:45:00,
2016-02-11 06:15:00,-999.9,-99.9,29.83,North,-9999,-999.9,-999.0,-999,0.00,,,0.00,weatherlink.com 1.10,2016-02-11 11:15:00,
2016-02-11 06:46:00,-999.9,-99.9,29.84,North,-9999,-999.9,-999.0,-999,0.00,,,0.00,weatherlink.com 1.10,2016-02-11 11:46:00,
2016-02-11 07:01:00,-999.9,-99.9,29.84,North,-9999,-999.9,-999.0,-999,0.00,,,0.00,weatherlink.com 1.10,2016-02-11 12:01:00,
2016-02-11 07:16:00,-999.9,-99.9,29.85,North,-9999,-999.9,-999.0,-999,0.00,,,0.00,weatherlink.com 1.10,2016-02-11 12:16:00,
2016-02-11 07:31:00,-999.9,-99.9,29.86,North,-9999,-999.9,-999.0,-999,0.00,,,0.00,weatherlink.com 1.10,2016-02-11 12:31:00,
2016-02-11 07:46:00,5.8,3.0,29.87,NW,319,4.0,7.0,87,0.00,,,0.00,weatherlink.com 1.10,2016-02-11 12:46:00,
2016-02-11 08:01:00,5.3,2.0,29.87,NNW,338,7.0,8.0,86,0.00,,,0.00,weatherlink.com 1.10,2016-02-11 13:01:00,
2016-02-11 08:16:00,4.6,1.0,29.89,NW,309,5.0,10.0,85,0.00,,,0.00,weatherlink.com 1.10,2016-02-11 13:16:00,
2016-02-11 08:31:00,3.6,0.0,29.89,NW,318,9.0,12.0,84,0.00,,,0.00,weatherlink.com 1.10,2016-02-11 13:31:00,
2016-02-11 08:46:00,3.2,-1.0,29.90,NW,318,6.0,12.0,84,0.00,,,0.00,weatherlink.com 1.10,2016-02-11 13:46:00,
2016-02-11 09:01:00,2.8,-1.0,29.91,NW,320,6.0,15.0,84,0.00,,,0.00,weatherlink.com 1.10,2016-02-11 14:01:00,
2016-02-11 09:16:00,1.5,-3.0,29.93,NW,318,12.0,18.0,83,0.00,,,0.00,weatherlink.com 1.10,2016-02-11 14:16:00,
2016-02-11 09:31:00,1.3,-3.0,29.93,WNW,301,12.0,15.0,83,0.00,,,0.00,weatherlink.com 1.10,2016-02-11 14:31:00,
2016-02-11 09:46:00,1.2,-3.0,29.94,NW,312,9.0,15.0,83,0.00,,,0.00,weatherlink.com 1.10,2016-02-11 14:46:00,
2016-02-11 10:02:00,1.7,-2.0,29.94,WNW,301,3.0,13.0,83,0.00,,,0.00,weatherlink.com 1.10,2016-02-11 15:02:00,
2016-02-11 10:17:00,1.9,-2.0,29.95,NNW,328,6.0,12.0,83,0.00,,,0.00,weatherlink.com 1.10,2016-02-11 15:17:00,
2016-02-11 10:32:00,2.3,-2.0,29.96,NW,306,7.0,12.0,83,0.00,,,0.00,weatherlink.com 1.10,2016-02-11 15:32:00,
2016-02-11 10:47:00,2.6,-2.0,29.97,WNW,283,8.0,11.0,82,0.00,,,0.00,weatherlink.com 1.10,2016-02-11 15:47:00,
2016-02-11 11:02:00,2.2,-2.0,29.97,NW,309,9.0,15.0,81,0.00,,,0.00,weatherlink.com 1.10,2016-02-11 16:02:00,
2016-02-11 11:17:00,2.1,-2.0,29.98,West,281,10.0,15.0,82,0.00,,,0.00,weatherlink.com 1.10,2016-02-11 16:17:00,
2016-02-11 11:32:00,2.2,-2.0,29.98,NW,309,5.0,16.0,81,0.00,,,0.00,weatherlink.com 1.10,2016-02-11 16:32:00,
2016-02-11 11:47:00,2.1,-3.0,29.99,NW,323,13.0,16.0,79,0.00,,,0.00,weatherlink.com 1.10,2016-02-11 16:47:00,
2016-02-11 12:02:00,2.2,-3.0,29.99,NW,306,11.0,14.0,78,0.00,,,0.00,weatherlink.com 1.10,2016-02-11 17:02:00,
2016-02-11 12:17:00,1.8,-4.0,30.00,WNW,294,9.0,17.0,78,0.00,,,0.00,weatherlink.com 1.10,2016-02-11 17:17:00,
2016-02-11 12:32:00,1.8,-4.0,30.00,NW,318,4.0,18.0,77,0.00,,,0.00,weatherlink.com 1.10,2016-02-11 17:32:00,
2016-02-11 12:47:00,1.7,-4.0,30.00,WNW,291,6.0,13.0,78,0.00,,,0.00,weatherlink.com 1.10,2016-02-11 17:47:00,
2016-02-11 13:02:00,1.8,-4.0,30.01,WNW,291,5.0,19.0,78,0.00,,,0.00,weatherlink.com 1.10,2016-02-11 18:02:00,
2016-02-11 13:18:00,1.9,-4.0,30.02,NW,321,4.0,14.0,77,0.00,,,0.00,weatherlink.com 1.10,2016-02-11 18:18:00,
2016-02-11 13:33:00,1.8,-4.0,30.02,West,277,8.0,15.0,77,0.00,,,0.00,weatherlink.com 1.10,2016-02-11 18:33:00,
2016-02-11 13:48:00,2.0,-3.0,30.02,NW,326,6.0,12.0,78,0.00,,,0.00,weatherlink.com 1.10,2016-02-11 18:48:00,
2016-02-11 14:03:00,2.5,-3.0,30.02,NNW,330,5.0,15.0,78,0.00,,,0.00,weatherlink.com 1.10,2016-02-11 19:03:00,
2016-02-11 14:18:00,1.7,-3.0,30.03,NW,317,16.0,16.0,79,0.00,,,0.00,weatherlink.com 1.10,2016-02-11 19:18:00,
2016-02-11 14:33:00,1.7,-4.0,30.04,NW,309,8.0,13.0,78,0.00,,,0.00,weatherlink.com 1.10,2016-02-11 19:33:00,
2016-02-11 14:48:00,1.4,-4.0,30.05,NW,323,10.0,17.0,78,0.00,,,0.00,weatherlink.com 1.10,2016-02-11 19:48:00,
2016-02-11 15:03:00,1.3,-4.0,30.06,NW,312,7.0,14.0,79,0.00,,,0.00,weatherlink.com 1.10,2016-02-11 20:03:00,
2016-02-11 15:18:00,1.0,-4.0,30.06,West,276,9.0,12.0,80,0.00,,,0.00,weatherlink.com 1.10,2016-02-11 20:18:00,
2016-02-11 15:33:00,0.7,-4.0,30.07,WNW,284,11.0,18.0,80,0.00,,,0.00,weatherlink.com 1.10,2016-02-11 20:33:00,
2016-02-11 15:48:00,0.7,-4.0,30.08,NW,307,8.0,13.0,82,0.00,,,0.00,weatherlink.com 1.10,2016-02-11 20:48:00,
2016-02-11 16:03:00,0.8,-3.0,30.09,NW,323,5.0,12.0,83,0.00,,,0.00,weatherlink.com 1.10,2016-02-11 21:03:00,
2016-02-11 16:18:00,0.4,-4.0,30.10,NW,321,4.0,19.0,82,0.00,,,0.00,weatherlink.com 1.10,2016-02-11 21:18:00,
2016-02-11 16:49:00,0.0,-5.0,30.13,NW,307,4.0,13.0,80,0.00,,,0.00,weatherlink.com 1.10,2016-02-11 21:49:00,
2016-02-11 17:04:00,-0.1,-5.0,30.14,NW,320,7.0,15.0,78,0.00,,,0.00,weatherlink.com 1.10,2016-02-11 22:04:00,
2016-02-11 17:19:00,-0.3,-6.0,30.14,WNW,293,5.0,15.0,77,0.00,,,0.00,weatherlink.com 1.10,2016-02-11 22:19:00,